Track STARLINK-1501 now! 10-day predictions STARLINK-1501 is classified as:
1 45763U 20038AK 22138.54042083 .00058456 00000-0 34669-3 0 9999 2 45763 53.0433 188.6929 0009086 306.6716 53.3468 15.77442663109138